Regional Weather Roundup
Issued by NWS

Home | Current Version | Previous Version | Text Only | Print | Product List | Glossary On
Versions: 1 2 3 4 5 6 7 8 9 10 11 12 13 14 15 16 17 18 19 20 21 22 23 24 25 26 27 28 29 30 31 32 33 34 35 36 37 38 39 40 41 42 43 44 45 46 47 48 49 50
000
ASUS43 KMPX 052210
RWRMN
WEATHER ROUNDUP FOR MINNESOTA
NATIONAL WEATHER SERVICE TWIN CITIES/CHANHASSEN MN
500 PM CDT SUN JUL 05 2015


NOTE: "FAIR" INDICATES FEW OR NO CLOUDS BELOW 12,000 FEET WITH NO
SIGNIFICANT WEATHER AND/OR OBSTRUCTIONS TO VISIBILITY. N/A MEANS
CURRENT SKY AND/OR WEATHER CONDITIONS ARE NOT AVAILABLE.

MNZ060>063-068>070-052300-
   Twin Cities Metro

CITY           SKY/WX    TMP DP  RH WIND       PRES   REMARKS
TWIN CITIES    PTSUNNY   87  68  52 S22G29    29.84F HX  90
ST PAUL        MOSUNNY   86  70  58 S15G25    29.84F HX  90
CRYSTAL        PTSUNNY   89  69  51 S16G24    29.81F HX  93
BLAINE         PTSUNNY   88  72  58 SE13G22   29.83F HX  94
LAKEVILLE      PTSUNNY   82  72  69 S7G16     29.86S
EDEN PRAIRIE   MOSUNNY   87  71  58 S16       29.83F HX  93
SOUTH ST PAUL  PTSUNNY   86  68  54 S16G25    29.85S
LAKE ELMO      FAIR      84  72  65 S15G21    29.87S
$$
MNZ001>005-007-008-013>017-022>024-027-028-052300-
   Northwest Minnesota

CITY           SKY/WX    TMP DP  RH WIND       PRES   REMARKS
BEMIDJI        CLOUDY    76  64  65 CALM      29.76R
HALLOCK        MOSUNNY   73  68  83 NW13      29.79R
ROSEAU         MOSUNNY   72  66  83 NW9       29.76R
WARROAD        PTSUNNY   73  68  83 NW10      29.75R
THIEF RVR FALL PTSUNNY   72  66  83 W12G17    29.79R
CROOKSTON      PTSUNNY   72  68  88 NW14      29.80R
FOSSTON        PTSUNNY   73  70  88 CALM      29.77F
DETROIT LAKES  CLOUDY    82  68  61 S10       29.78S
MOORHEAD       PTSUNNY   82  72  69 W3        29.74F
PARK RAPIDS    PTSUNNY   86  65  49 S15       29.77F
MAHNOMEN       MOCLDY    78  69  73 CALM      29.76S
$$
MNZ006-009>011-018-025>026-052300-
   North Central Minnesota

CITY           SKY/WX    TMP DP  RH WIND       PRES   REMARKS
BAUDETTE       LGT RAIN  71  65  81 VRB6      29.75R
FLAG ISLAND    PTSUNNY   68  63  83 N16       29.73S
INTL FALLS     LGT RAIN  75  64  68 W5        29.72F
WASKISH        CLOUDY    73  64  73 SW7       29.76R
BIG FORK       CLOUDY    79  72  78 S3        29.76F
LONGVILLE      CLOUDY    81  68  65 S9        29.77F
GRAND RAPIDS   CLOUDY    82  66  57 S14       29.78F
CRANE LAKE     CLOUDY    75  70  83 S2        29.76F
COOK           TSTM      79  68  69 S3        29.76F
WALKER         CLOUDY    81  68  63 S3        29.76S
$$
MNZ012-019>021-037-052300-
   Northeast Minnesota

CITY           SKY/WX    TMP DP  RH WIND       PRES   REMARKS
DULUTH         PTSUNNY   82  67  60 S17G24    29.82F
ELY            CLOUDY    81  64  57 S9G16     29.78F
HIBBING        CLOUDY    80  67  64 VRB7      29.77F
DULUTH HARBOR  PTSUNNY   84  70  61 S14       29.80S
SILVER BAY     PTSUNNY   77  64  65 SE5       29.80F
GRAND MARAIS     N/A     54  49  83 NE7       29.82F
G MARAIS ARPRT MOSUNNY   73  61  64 S7        29.87F
$$
MNZ029>031-032-039>041-046>048-054>057-064-052300-
   West Central Minnesota

CITY           SKY/WX    TMP DP  RH WIND       PRES   REMARKS
FERGUS FALLS   CLOUDY    84  70  61 S12       29.74S
WHEATON        CLOUDY    84  70  61 CALM      29.75F
MORRIS         CLOUDY    90  70  51 SW13      29.75F HX  95
ALEXANDRIA     PTSUNNY   84  69  60 S13       29.79F
ELBOW LAKE     FAIR      84  71  65 S13       29.76R
WADENA         PTSUNNY   84  66  54 S16       29.75F
GLENWOOD       MOSUNNY   86  70  58 S14       29.80F HX  90
APPLETON       CLOUDY    91  68  46 S12       29.75F HX  95
BENSON         MOSUNNY   88  66  48 SW9       29.77F HX  90
ORTONVILLE     CLOUDY    91  70  49 S6        29.75S HX  97
MADISON        CLOUDY    88  68  51 S10       29.77S HX  91
WILLMAR          N/A     88  70  55 S3        29.82S HX  92
$$
MNZ033>034-036-042>043-049>051-058-059-052300-
   Central Minnesota

CITY           SKY/WX    TMP DP  RH WIND       PRES   REMARKS
ST CLOUD       MOSUNNY   87  70  56 S12G20    29.81F HX  92
SAUK CENTRE    MOCLDY    83  69  61 S10       29.80F
PAYNESVILLE    PTSUNNY   83  67  59 SE9       29.82S
AITKIN         PTSUNNY   84  70  61 S13G20    29.79S
PINE RIVER       N/A     84  68  58 S14       29.81F
BRAINERD       CLOUDY    84  68  58 S9        29.80F
STAPLES        PTSUNNY   86  64  48 S14       29.77F
LONG PRAIRIE   PTSUNNY   82  70  65 SE12      29.80F
LITTLE FALLS   PTSUNNY   82  64  54 S9        29.81S
LITCHFIELD     MOSUNNY   86  73  66 S6        29.82R HX  93
BUFFALO        PTSUNNY   85  69  58 S14       29.83F
MAPLE LAKE     PTSUNNY   86  73  65 S7G16     29.83F HX  92
$$
MNZ037-044-045-052-053-052300-
   East Central Minnesota

CITY           SKY/WX    TMP DP  RH WIND       PRES   REMARKS
PRINCETON      PTSUNNY   88  70  55 S16       29.81F HX  92
MORA           PTSUNNY   86  68  54 S16       29.83F
CAMBRIDGE      PTSUNNY   88  70  55 SE9G20    29.80F HX  92
RUSH CITY      PTSUNNY   84  70  61 S14       29.83S
MOOSE LAKE     PTSUNNY   81  66  61 S12G21    29.80S
HINCKLEY       FAIR      82  70  65 S12G18    29.83S
CLOQUET        PTSUNNY   82  64  54 S14G20    29.82S
MCGREGOR       CLOUDY    82  68  61 S12       29.81R
$$
MNZ071>073-080-081-089-090-097-098-052300-
   Southwest Minnesota

CITY           SKY/WX    TMP DP  RH WIND       PRES   REMARKS
MONTEVIDEO     PTSUNNY   90  70  51 SW13      29.79S HX  95
GRANITE FALLS  MOSUNNY   87  67  51 S14G20    29.81S HX  90
CANBY          PTSUNNY   85  69  57 S9G16     29.79S
MARSHALL       MOSUNNY   86  66  51 S12       29.80S
REDWOOD FALLS  MOSUNNY   90  69  50 S17G23    29.81S HX  94
OLIVIA         SUNNY     88  68  51 S16       29.81S HX  91
PIPESTONE      MOSUNNY   84  66  54 S12       29.83F
WINDOM         SUNNY     88  70  55 S17G23    29.85S HX  92
WORTHINGTON    MOSUNNY   88  72  58 S14G23    29.85S HX  94
JACKSON        PTSUNNY   88  70  55 S17G23    29.87S HX  92
TRACY          PTSUNNY   86  67  52 S13G18    29.82F
SLAYTON        MOSUNNY   86  67  52 S12       29.85F
$$
MNZ065>067-074>077-082>085-091>093-052300-
   South Central Minnesota

CITY           SKY/WX    TMP DP  RH WIND       PRES   REMARKS
MANKATO        MOSUNNY   84  70  61 S17G23    29.86S
NEW ULM        MOSUNNY   86  72  62 S16G24    29.83F HX  92
FAIRMONT       MOSUNNY   84  68  58 S16G22    29.87S
GLENCOE        MOSUNNY   88  74  61 S12G22    29.83S HX  96
FARIBAULT      MOSUNNY   84  70  61 S14       29.88S
OWATONNA       MOSUNNY   84  68  58 SE18G28   29.89F
WASECA         MOSUNNY   82  68  61 S16G23    29.90S
ALBERT LEA     PTSUNNY   84  68  58 S18       29.90F
$$
MNZ078>079-086>088-094>096-052300-
   Southeast Minnesota

CITY           SKY/WX    TMP DP  RH WIND       PRES   REMARKS
ROCHESTER      PTSUNNY   81  67  62 S16       29.93F
RED WING       MOSUNNY   86  66  51 S13G20    29.87S
STANTON        PTSUNNY   84  70  61 S13G21    29.86S
DODGE CENTER   PTSUNNY   81  70  69 S15G22    29.92S
WINONA         MOSUNNY   82  64  54 S7        29.93F
AUSTIN         PTSUNNY   82  66  57 S10G18    29.92F
PRESTON        MOSUNNY   80  65  60 S17       29.95F
$$
ABBREVIATIONS USED IN REMARKS
   TC - TEMPERATURES IN CELSIUS
  WCI - WIND CHILL INDEX
   HX - HEAT INDEX
  VSB - VISIBILITY
$$


USA.gov is the U.S. government's official web portal to all federal, state and local government web resources and services.